• In Deutschland
  • Länderverzeichnis
  • Für 7 Tage
  • Wassertemperatur
  • Satellitenkarten
  • Wetterkarte
  • Widgets
  • user-avatar
    Anmelden

    Stündliche Wetter Lemnos

    Heute, 23 Mai, Mittwoch

    Zeit Temperatur Niederschläge Wind Luftdruck Luftfeuchtigkeit
    00:00 +21°C° 0 mm 4 m/S 760 mmHg 69%
    01:00 +21°C° 0 mm 4 m/S 760 mmHg 69%
    02:00 +21°C° 0 mm 4 m/S 760 mmHg 69%
    03:00 +21°C° 0 mm 4 m/S 760 mmHg 70%
    04:00 +21°C° 0 mm 4 m/S 760 mmHg 72%
    05:00 +21°C° 0 mm 5 m/S 760 mmHg 73%
    06:00 +21°C° 0 mm 5 m/S 760 mmHg 73%
    07:00 +22°C° 0 mm 5 m/S 760 mmHg 72%
    08:00 +22°C° 0 mm 5 m/S 761 mmHg 71%
    09:00 +23°C° 0 mm 5 m/S 761 mmHg 70%
    10:00 +23°C° 0 mm 5 m/S 761 mmHg 68%
    11:00 +25°C° 0 mm 5 m/S 761 mmHg 66%
    12:00 +25°C° 0 mm 4 m/S 760 mmHg 64%
    13:00 +25°C° 0 mm 4 m/S 760 mmHg 61%
    14:00 +25°C° 0 mm 4 m/S 760 mmHg 59%
    15:00 +25°C° 0 mm 4 m/S 759 mmHg 59%
    16:00 +25°C° 0 mm 4 m/S 759 mmHg 59%
    17:00 +25°C° 0 mm 3 m/S 758 mmHg 58%
    18:00 +23°C° 0 mm 4 m/S 758 mmHg 62%
    19:00 +22°C° 0 mm 4 m/S 758 mmHg 65%
    20:00 +22°C° 0 mm 4 m/S 758 mmHg 69%
    21:00 +22°C° 0 mm 4 m/S 758 mmHg 70%
    22:00 +21°C° 0 mm 4 m/S 758 mmHg 71%
    23:00 +21°C° 0 mm 4 m/S 758 mmHg 72%

    Morgen, 24 Mai, Donnerstag

    Zeit Temperatur Niederschläge Wind Luftdruck Luftfeuchtigkeit
    00:00 +21°C° 0 mm 4 m/S 757 mmHg 72%
    01:00 +21°C° 0 mm 4 m/S 757 mmHg 72%
    02:00 +21°C° 0 mm 4 m/S 757 mmHg 72%
    03:00 +21°C° 0 mm 5 m/S 757 mmHg 74%
    04:00 +20°C° 0 mm 5 m/S 757 mmHg 76%
    05:00 +20°C° 0 mm 5 m/S 756 mmHg 79%
    06:00 +21°C° 0 mm 6 m/S 757 mmHg 77%
    07:00 +22°C° 0 mm 6 m/S 757 mmHg 76%
    08:00 +22°C° 0 mm 6 m/S 757 mmHg 74%
    09:00 +23°C° 0,1 mm 6 m/S 757 mmHg 70%
    10:00 +23°C° 0,1 mm 6 m/S 757 mmHg 67%
    11:00 +24°C° 0,1 mm 6 m/S 757 mmHg 63%
    12:00 +25°C° 0 mm 5 m/S 756 mmHg 61%
    13:00 +25°C° 0 mm 5 m/S 756 mmHg 59%
    14:00 +26°C° 0 mm 5 m/S 756 mmHg 57%
    15:00 +26°C° 0,1 mm 5 m/S 755 mmHg 57%
    16:00 +26°C° 0,1 mm 5 m/S 755 mmHg 57%
    17:00 +26°C° 0,1 mm 5 m/S 754 mmHg 57%
    18:00 +25°C° 0,2 mm 5 m/S 755 mmHg 60%
    19:00 +25°C° 0,2 mm 5 m/S 755 mmHg 63%
    20:00 +23°C° 0,2 mm 6 m/S 755 mmHg 66%
    21:00 +23°C° 0 mm 6 m/S 755 mmHg 67%
    22:00 +23°C° 0 mm 6 m/S 755 mmHg 69%
    23:00 +22°C° 0 mm 6 m/S 755 mmHg 70%

    übermorgen, 25 Mai, Freitag

    Zeit Temperatur Niederschläge Wind Luftdruck Luftfeuchtigkeit
    00:00 +22°C° 0,1 mm 7 m/S 755 mmHg 74%
    01:00 +22°C° 0,1 mm 7 m/S 755 mmHg 77%
    02:00 +21°C° 0,1 mm 7 m/S 755 mmHg 81%
    03:00 +21°C° 0 mm 7 m/S 755 mmHg 81%
    04:00 +21°C° 0 mm 7 m/S 755 mmHg 80%
    05:00 +21°C° 0 mm 8 m/S 755 mmHg 80%
    06:00 +21°C° 0 mm 8 m/S 755 mmHg 74%
    07:00 +22°C° 0 mm 8 m/S 755 mmHg 68%
    08:00 +23°C° 0 mm 8 m/S 756 mmHg 63%
    09:00 +24°C° 0 mm 7 m/S 756 mmHg 59%
    10:00 +24°C° 0 mm 7 m/S 756 mmHg 56%
    11:00 +26°C° 0 mm 7 m/S 756 mmHg 52%
    12:00 +26°C° 0 mm 7 m/S 756 mmHg 51%
    13:00 +27°C° 0 mm 6 m/S 756 mmHg 51%
    14:00 +27°C° 0 mm 6 m/S 755 mmHg 50%
    15:00 +27°C° 0 mm 6 m/S 755 mmHg 49%
    16:00 +27°C° 0 mm 5 m/S 755 mmHg 49%
    17:00 +27°C° 0 mm 5 m/S 755 mmHg 48%
    18:00 +27°C° 0 mm 5 m/S 755 mmHg 50%
    19:00 +26°C° 0 mm 5 m/S 755 mmHg 53%
    20:00 +24°C° 0 mm 6 m/S 756 mmHg 55%
    21:00 +24°C° 0,1 mm 6 m/S 756 mmHg 59%
    22:00 +23°C° 0,1 mm 7 m/S 756 mmHg 62%
    23:00 +23°C° 0,1 mm 7 m/S 757 mmHg 65%

    26 Mai, Samstag

    Zeit Temperatur Niederschläge Wind Luftdruck Luftfeuchtigkeit
    00:00 +23°C° 0 mm 7 m/S 756 mmHg 67%
    01:00 +22°C° 0 mm 8 m/S 756 mmHg 69%
    02:00 +22°C° 0 mm 8 m/S 756 mmHg 71%
    03:00 +22°C° 0 mm 8 m/S 756 mmHg 71%
    04:00 +22°C° 0 mm 8 m/S 756 mmHg 70%
    05:00 +22°C° 0 mm 8 m/S 756 mmHg 70%
    06:00 +22°C° 0 mm 8 m/S 756 mmHg 66%
    07:00 +23°C° 0 mm 7 m/S 757 mmHg 61%
    08:00 +24°C° 0 mm 7 m/S 757 mmHg 57%
    09:00 +26°C° 0 mm 7 m/S 757 mmHg 55%
    10:00 +26°C° 0 mm 6 m/S 757 mmHg 53%
    11:00 +27°C° 0 mm 6 m/S 757 mmHg 50%
    12:00 +27°C° 0,1 mm 6 m/S 757 mmHg 49%
    13:00 +28°C° 0,1 mm 6 m/S 757 mmHg 48%
    14:00 +28°C° 0,1 mm 6 m/S 756 mmHg 47%
    15:00 +28°C° 0 mm 7 m/S 756 mmHg 48%
    16:00 +28°C° 0 mm 8 m/S 756 mmHg 49%
    17:00 +28°C° 0 mm 8 m/S 756 mmHg 50%
    18:00 +27°C° 0 mm 9 m/S 756 mmHg 56%
    19:00 +26°C° 0 mm 10 m/S 757 mmHg 61%
    20:00 +24°C° 0 mm 11 m/S 757 mmHg 67%
    21:00 +24°C° 0 mm 11 m/S 758 mmHg 69%
    22:00 +23°C° 0 mm 11 m/S 758 mmHg 72%
    23:00 +23°C° 0 mm 11 m/S 758 mmHg 74%

    27 Mai, Sonntag

    Zeit Temperatur Niederschläge Wind Luftdruck Luftfeuchtigkeit
    00:00 +22°C° 0 mm 11 m/S 758 mmHg 75%
    01:00 +22°C° 0 mm 11 m/S 758 mmHg 76%
    02:00 +22°C° 0 mm 11 m/S 758 mmHg 77%
    03:00 +22°C° 0 mm 12 m/S 758 mmHg 76%
    04:00 +21°C° 0 mm 12 m/S 759 mmHg 75%
    05:00 +21°C° 0 mm 12 m/S 759 mmHg 75%
    06:00 +21°C° 0 mm 12 m/S 759 mmHg 72%
    07:00 +22°C° 0 mm 12 m/S 759 mmHg 70%
    08:00 +22°C° 0 mm 12 m/S 760 mmHg 68%
    09:00 +22°C° 0 mm 12 m/S 760 mmHg 64%
    10:00 +23°C° 0 mm 12 m/S 760 mmHg 60%
    11:00 +23°C° 0 mm 12 m/S 760 mmHg 57%
    12:00 +23°C° 0 mm 11 m/S 760 mmHg 55%
    13:00 +24°C° 0 mm 11 m/S 760 mmHg 52%
    14:00 +24°C° 0 mm 10 m/S 760 mmHg 50%
    15:00 +24°C° 0 mm 10 m/S 760 mmHg 53%
    16:00 +24°C° 0 mm 10 m/S 760 mmHg 55%
    17:00 +24°C° 0 mm 9 m/S 759 mmHg 57%
    18:00 +23°C° 0 mm 9 m/S 760 mmHg 61%
    19:00 +22°C° 0 mm 10 m/S 760 mmHg 65%
    20:00 +22°C° 0 mm 10 m/S 760 mmHg 68%
    21:00 +22°C° 0 mm 11 m/S 760 mmHg 67%
    22:00 +21°C° 0 mm 11 m/S 760 mmHg 67%
    23:00 +21°C° 0 mm 12 m/S 761 mmHg 66%

    28 Mai, Montag

    Zeit Temperatur Niederschläge Wind Luftdruck Luftfeuchtigkeit
    00:00 +21°C° 0 mm 12 m/S 760 mmHg 66%
    01:00 +19°C° 0 mm 12 m/S 760 mmHg 66%
    02:00 +19°C° 0 mm 12 m/S 760 mmHg 66%
    03:00 +19°C° 0 mm 11 m/S 760 mmHg 65%
    04:00 +19°C° 0 mm 11 m/S 760 mmHg 64%
    05:00 +19°C° 0 mm 11 m/S 760 mmHg 63%
    06:00 +19°C° 0 mm 11 m/S 760 mmHg 62%
    07:00 +19°C° 0 mm 11 m/S 760 mmHg 61%
    08:00 +19°C° 0 mm 11 m/S 760 mmHg 60%
    09:00 +21°C° 0 mm 10 m/S 760 mmHg 58%
    10:00 +21°C° 0 mm 10 m/S 760 mmHg 55%
    11:00 +22°C° 0 mm 10 m/S 760 mmHg 52%
    12:00 +22°C° 0 mm 9 m/S 759 mmHg 50%
    13:00 +23°C° 0 mm 8 m/S 759 mmHg 49%
    14:00 +23°C° 0 mm 8 m/S 759 mmHg 47%
    15:00 +23°C° 0 mm 7 m/S 759 mmHg 47%
    16:00 +23°C° 0 mm 6 m/S 758 mmHg 47%
    17:00 +24°C° 0 mm 6 m/S 758 mmHg 47%
    18:00 +23°C° 0 mm 6 m/S 758 mmHg 49%
    19:00 +22°C° 0 mm 6 m/S 758 mmHg 51%
    20:00 +22°C° 0 mm 7 m/S 758 mmHg 53%
    21:00 +22°C° 0 mm 8 m/S 758 mmHg 59%
    22:00 +22°C° 0 mm 8 m/S 758 mmHg 64%
    23:00 +21°C° 0 mm 9 m/S 758 mmHg 70%
    Mehr zeigen